Location: Nitra
(0.0000°N, 18.0833°E)
Time: 12:16:28
(UTC+02:00)

VELOX 1 - Visible Passes

Search period start: 05 June 2023 00:00
Search period end: 15 June 2023 00:00
Orbit: 617 x 629 km, 98.4° (Epoch: 04 June)

Date Brightness Start Highest point End Pass type
(mag) Time Alt. Az. Time Alt. Az. Time Alt. Az.
05 Jun ? 06:20:48 10° SE 06:23:58 20° ENE 06:27:08 10° NNE visible
05 Jun ? 20:07:08 10° NW 20:08:56 12° WNW 20:10:46 10° WSW visible
07 Jun ? 19:05:16 10° NNE 19:09:37 90° SW 19:13:58 10° SSW visible
08 Jun ? 19:23:42 10° N 19:27:53 48° WNW 19:32:04 10° SSW visible
09 Jun ? 19:42:30 10° NNW 19:46:08 26° WNW 19:49:46 10° SW visible
10 Jun ? 06:16:38 10° ESE 06:19:25 17° ENE 06:22:11 10° NE visible
10 Jun ? 20:01:54 10° NW 20:04:22 15° WNW 20:06:51 10° WSW visible
13 Jun ? 19:18:57 10° N 19:23:12 59° WNW 19:27:28 10° SSW visible
14 Jun ? 19:37:35 10° NNW 19:41:26 32° WNW 19:45:17 10° SW visible
